Regional Weather Roundup
Issued by NWS Midland/Odessa, TX

Skip options and go directly to product.
Home | Oldest Version | Previous Version | Current Version | All | Text Only | Save Text | Print | Product List | Glossary Off

Skip product version selection by date and time.   

008
ASUS44 KMAF 211610
RWRMAF
MIDLAND AREA WEATHER ROUNDUP
NATIONAL WEATHER SERVICE MIDLAND TX
1100 AM CDT SUN SEP 21 2014

...IN SOUTHWEST TEXAS AND SOUTHEAST NEW MEXICO...

CITY           SKY/WX    TMP DP  RH WIND       PRES   REMARKS
ALPINE         PTSUNNY   73  65  76 CALM      30.28R
ANDREWS        LGT RAIN  70  69  99 SE5       30.21R
ARTESIA        NOT AVBL
BIG SPRING     CLOUDY    74  70  88 E3        30.20R
CARLSBAD       LGT RAIN  71  32  23 SE3       30.16S
DRYDEN           N/A     79  72  79 E12       30.12R
FORT STOCKTON  CLOUDY    75  67  76 SE15      30.16R
GUAD PASS      FOG       64  64 100 NE21        N/A  VSB 1/2
HOBBS          LGT RAIN  66  66 100 E5        30.23R FOG
MARFA          CLOUDY    70  64  83 CALM      30.27R
MIDLAND AIRPK  CLOUDY    74  73  99 CALM      30.19R
MIDLAND INTL   CLOUDY    73  70  90 SE12      30.17R
ODESSA         CLOUDY    73  69  87 SE8       30.19R
PECOS          CLOUDY    76  69  79 E9        30.14R
PRESIDIO       PTSUNNY   80  67  63 E8G16     30.12S
SEMINOLE       RAIN      68  67  97 CALM      30.22S
SNYDER         CLOUDY    75  70  83 SE3       30.19R
WINK           CLOUDY    76  71  85 E13       30.14R
$$
...OTHER STATIONS IN TEXAS...

CITY           SKY/WX    TMP DP  RH WIND       PRES   REMARKS
ABILENE        MOSUNNY   80  70  71 SE7       30.16S
AMARILLO       MOSUNNY   76  67  73 N5        30.26R
AUSTIN         MOSUNNY   84  72  67 NE8       30.08S
BROWNSVILLE    MOSUNNY   87  76  69 N5        29.97R
CORPUS CHRISTI RAIN      77  74  90 NE15      30.01R FOG
DALLAS FTW     MOSUNNY   85  66  53 CALM      30.11R
DEL RIO        PTSUNNY   81  72  74 E9        30.07R
EL PASO        PTSUNNY   76  64  66 CALM      30.17R
HOUSTON INT    MOSUNNY   85  70  60 E7        30.06R
LUBBOCK        LGT RAIN  70  68  93 NE9       30.23R FOG
SAN ANGELO     CLOUDY    77  69  76 SE6       30.15R
SAN ANTONIO    PTSUNNY   83  71  67 E9        30.08S
WACO           MOSUNNY   85  69  58 NW5       30.11R
WICHITA FALLS  NOT AVBL
$$
...OTHER LOCATIONS IN NEW MEXICO...

CITY           SKY/WX    TMP DP  RH WIND       PRES   REMARKS
ALAMAGORDO     MOSUNNY   73  63  68 CALM      30.22R
ALBUQUERQUE    PTSUNNY   73  54  51 E18G30    30.32R
CANNON AFB     NOT AVBL
CLOVIS           N/A     73  63  68 NE12      30.30S
HOLLOMAN AFB   MOSUNNY   73  63  70 CALM      30.19S
ROSWELL        LGT RAIN  70  68  93 CALM      30.21S FOG
RUIDOSO        CLOUDY    61  59  94 E6        30.41R
SANTA FE       MOSUNNY   74  49  41 SE20      30.37F
TRUTH OR CONSE MOSUNNY   73  62  68 N14       30.24S
TUCUMCARI      PTSUNNY   74  61  63 E10       30.29S
$$

USA.gov is the U.S. government's official web portal to all federal, state and local government web resources and services.